Time,TemperatureF,DewpointF,PressureIn,WindDirection,WindDirectionDegrees,WindSpeedMPH,WindSpeedGustMPH,Humidity,HourlyPrecipIn,Conditions,Clouds,dailyrainin,SoftwareType,DateUTC
2013-01-13 00:00:00,42.2,40.8,30.14,ESE,119,0.0,2.0,95,0.00,,,0.00,WUHU216DAVISVP2,2013-01-13 05:00:00,
2013-01-13 00:01:00,42.2,40.8,30.14,ESE,119,0.0,2.0,95,0.00,,,0.00,WUHU216DAVISVP2,2013-01-13 05:01:00,
2013-01-13 00:03:00,42.2,40.8,30.14,ESE,119,0.0,2.0,95,0.00,,,0.00,WUHU216DAVISVP2,2013-01-13 05:03:00,
2013-01-13 00:08:00,42.1,40.7,30.14,ESE,119,0.0,2.0,95,0.00,,,0.00,WUHU216DAVISVP2,2013-01-13 05:08:00,
2013-01-13 00:13:00,42.1,40.7,30.14,ESE,119,0.0,2.0,95,0.00,,,0.00,WUHU216DAVISVP2,2013-01-13 05:13:00,
2013-01-13 00:18:00,42.0,40.6,30.15,ESE,119,0.0,1.0,95,0.00,,,0.00,WUHU216DAVISVP2,2013-01-13 05:18:00,
2013-01-13 00:23:00,41.9,40.5,30.15,ESE,119,0.0,1.0,95,0.00,,,0.00,WUHU216DAVISVP2,2013-01-13 05:23:00,
2013-01-13 00:28:00,41.8,40.4,30.14,ESE,119,0.0,1.0,95,0.00,,,0.00,WUHU216DAVISVP2,2013-01-13 05:28:00,
2013-01-13 00:33:00,41.7,40.3,30.14,ESE,119,0.0,0.0,95,0.00,,,0.00,WUHU216DAVISVP2,2013-01-13 05:33:00,
2013-01-13 00:38:00,41.7,40.3,30.14,SE,134,0.0,2.0,95,0.00,,,0.00,WUHU216DAVISVP2,2013-01-13 05:38:00,
2013-01-13 00:43:00,41.6,40.2,30.13,SE,134,0.0,2.0,95,0.00,,,0.00,WUHU216DAVISVP2,2013-01-13 05:43:00,
2013-01-13 00:48:00,41.5,40.1,30.13,SE,134,0.0,2.0,95,0.00,,,0.00,WUHU216DAVISVP2,2013-01-13 05:48:00,
2013-01-13 00:53:00,41.5,40.1,30.13,SE,134,0.0,2.0,95,0.00,,,0.00,WUHU216DAVISVP2,2013-01-13 05:53:00,
2013-01-13 00:58:00,41.5,40.4,30.13,SE,134,0.0,1.0,96,0.00,,,0.00,WUHU216DAVISVP2,2013-01-13 05:58:00,
2013-01-13 01:03:00,41.6,40.5,30.13,SE,134,0.0,1.0,96,0.00,,,0.00,WUHU216DAVISVP2,2013-01-13 06:03:00,
2013-01-13 01:08:00,41.5,40.4,30.13,SE,134,0.0,0.0,96,0.00,,,0.00,WUHU216DAVISVP2,2013-01-13 06:08:00,
2013-01-13 01:13:00,41.5,40.4,30.13,SE,134,0.0,0.0,96,0.00,,,0.00,WUHU216DAVISVP2,2013-01-13 06:13:00,
2013-01-13 01:18:00,41.3,40.2,30.12,SE,134,0.0,0.0,96,0.00,,,0.00,WUHU216DAVISVP2,2013-01-13 06:18:00,
2013-01-13 01:23:00,41.2,40.1,30.12,SE,134,0.0,0.0,96,0.00,,,0.00,WUHU216DAVISVP2,2013-01-13 06:23:00,
2013-01-13 01:28:00,41.1,39.7,30.13,SE,134,0.0,0.0,95,0.00,,,0.00,WUHU216DAVISVP2,2013-01-13 06:28:00,
2013-01-13 01:33:00,41.0,39.9,30.12,SE,134,0.0,0.0,96,0.00,,,0.00,WUHU216DAVISVP2,2013-01-13 06:33:00,
2013-01-13 01:38:00,41.0,39.9,30.12,SE,134,0.0,1.0,96,0.00,,,0.00,WUHU216DAVISVP2,2013-01-13 06:38:00,
2013-01-13 01:43:00,41.0,39.9,30.12,SE,134,0.0,1.0,96,0.00,,,0.00,WUHU216DAVISVP2,2013-01-13 06:43:00,
2013-01-13 01:48:00,41.1,40.0,30.12,SE,134,0.0,1.0,96,0.00,,,0.00,WUHU216DAVISVP2,2013-01-13 06:48:00,
2013-01-13 01:53:00,41.1,40.0,30.12,SE,134,0.0,1.0,96,0.00,,,0.00,WUHU216DAVISVP2,2013-01-13 06:53:00,
2013-01-13 01:58:00,41.0,39.9,30.13,SE,134,0.0,0.0,96,0.00,,,0.00,WUHU216DAVISVP2,2013-01-13 06:58:00,
2013-01-13 02:03:00,41.1,40.0,30.13,SE,140,0.0,2.0,96,0.00,,,0.00,WUHU216DAVISVP2,2013-01-13 07:03:00,
2013-01-13 02:08:00,41.1,40.0,30.13,SE,140,0.0,2.0,96,0.00,,,0.00,WUHU216DAVISVP2,2013-01-13 07:08:00,
2013-01-13 02:13:00,41.0,39.9,30.13,SE,140,0.0,2.0,96,0.00,,,0.00,WUHU216DAVISVP2,2013-01-13 07:13:00,
2013-01-13 02:18:00,40.9,39.8,30.13,SE,140,0.0,2.0,96,0.00,,,0.00,WUHU216DAVISVP2,2013-01-13 07:18:00,
2013-01-13 02:23:00,40.5,39.4,30.13,SE,140,0.0,1.0,96,0.00,,,0.00,WUHU216DAVISVP2,2013-01-13 07:23:00,
2013-01-13 02:28:00,40.4,39.3,30.13,SE,140,0.0,1.0,96,0.00,,,0.00,WUHU216DAVISVP2,2013-01-13 07:28:00,
2013-01-13 02:33:00,40.3,39.2,30.12,SE,140,0.0,1.0,96,0.00,,,0.00,WUHU216DAVISVP2,2013-01-13 07:33:00,
2013-01-13 02:38:00,40.2,39.1,30.12,SE,140,0.0,1.0,96,0.00,,,0.00,WUHU216DAVISVP2,2013-01-13 07:38:00,
2013-01-13 02:43:00,40.2,39.1,30.13,SE,140,0.0,0.0,96,0.00,,,0.00,WUHU216DAVISVP2,2013-01-13 07:43:00,
2013-01-13 02:48:00,40.3,39.2,30.12,SE,140,0.0,1.0,96,0.00,,,0.00,WUHU216DAVISVP2,2013-01-13 07:48:00,
2013-01-13 02:53:00,40.6,39.8,30.12,SE,140,0.0,1.0,97,0.00,,,0.00,WUHU216DAVISVP2,2013-01-13 07:53:00,
2013-01-13 02:58:00,40.9,40.1,30.12,SE,140,0.0,1.0,97,0.00,,,0.00,WUHU216DAVISVP2,2013-01-13 07:58:00,
2013-01-13 03:03:00,41.2,40.4,30.12,SE,140,0.0,1.0,97,0.00,,,0.00,WUHU216DAVISVP2,2013-01-13 08:03:00,
2013-01-13 03:08:00,41.4,40.6,30.12,SE,140,0.0,1.0,97,0.00,,,0.00,WUHU216DAVISVP2,2013-01-13 08:08:00,
2013-01-13 03:13:00,41.5,40.7,30.12,SE,140,0.0,1.0,97,0.00,,,0.00,WUHU216DAVISVP2,2013-01-13 08:13:00,
2013-01-13 03:18:00,41.5,40.7,30.12,SE,140,1.0,1.0,97,0.00,,,0.00,WUHU216DAVISVP2,2013-01-13 08:18:00,
2013-01-13 03:23:00,41.6,40.8,30.11,SE,140,0.0,1.0,97,0.00,,,0.00,WUHU216DAVISVP2,2013-01-13 08:23:00,
2013-01-13 03:28:00,41.7,40.9,30.12,SE,140,1.0,1.0,97,0.00,,,0.00,WUHU216DAVISVP2,2013-01-13 08:28:00,
2013-01-13 03:33:00,41.8,41.0,30.12,WSW,255,0.0,5.0,97,0.00,,,0.00,WUHU216DAVISVP2,2013-01-13 08:33:00,
2013-01-13 03:38:00,41.9,41.1,30.11,WSW,255,0.0,5.0,97,0.00,,,0.00,WUHU216DAVISVP2,2013-01-13 08:38:00,
2013-01-13 03:43:00,41.9,41.1,30.10,WSW,255,0.0,5.0,97,0.00,,,0.00,WUHU216DAVISVP2,2013-01-13 08:43:00,
2013-01-13 03:48:00,41.8,41.0,30.10,WSW,255,0.0,5.0,97,0.00,,,0.00,WUHU216DAVISVP2,2013-01-13 08:48:00,
2013-01-13 03:53:00,41.8,41.0,30.10,WSW,255,0.0,1.0,97,0.00,,,0.00,WUHU216DAVISVP2,2013-01-13 08:53:00,
2013-01-13 03:58:00,41.9,41.1,30.10,WSW,255,0.0,1.0,97,0.00,,,0.00,WUHU216DAVISVP2,2013-01-13 08:58:00,
2013-01-13 04:03:00,41.9,41.1,30.10,WSW,255,1.0,2.0,97,0.00,,,0.00,WUHU216DAVISVP2,2013-01-13 09:03:00,
2013-01-13 04:08:00,42.0,41.2,30.10,WSW,255,0.0,2.0,97,0.00,,,0.00,WUHU216DAVISVP2,2013-01-13 09:08:00,
2013-01-13 04:13:00,42.0,41.2,30.10,WSW,255,0.0,2.0,97,0.00,,,0.00,WUHU216DAVISVP2,2013-01-13 09:13:00,
2013-01-13 04:18:00,42.0,41.2,30.10,WSW,255,0.0,2.0,97,0.00,,,0.00,WUHU216DAVISVP2,2013-01-13 09:18:00,
2013-01-13 04:23:00,42.0,41.2,30.10,WSW,255,0.0,1.0,97,0.00,,,0.00,WUHU216DAVISVP2,2013-01-13 09:23:00,
2013-01-13 04:28:00,42.1,41.3,30.11,WSW,255,0.0,1.0,97,0.00,,,0.00,WUHU216DAVISVP2,2013-01-13 09:28:00,
2013-01-13 04:33:00,42.1,41.3,30.11,WSW,255,0.0,1.0,97,0.00,,,0.00,WUHU216DAVISVP2,2013-01-13 09:33:00,
2013-01-13 04:38:00,42.1,41.3,30.10,WSW,255,0.0,1.0,97,0.00,,,0.00,WUHU216DAVISVP2,2013-01-13 09:38:00,
2013-01-13 04:43:00,42.1,41.3,30.09,ESE,119,3.0,3.0,97,0.00,,,0.00,WUHU216DAVISVP2,2013-01-13 09:43:00,
2013-01-13 04:48:00,42.1,41.3,30.08,SE,130,1.0,3.0,97,0.00,,,0.00,WUHU216DAVISVP2,2013-01-13 09:48:00,
2013-01-13 04:53:00,42.2,41.4,30.08,ESE,111,1.0,3.0,97,0.00,,,0.00,WUHU216DAVISVP2,2013-01-13 09:53:00,
2013-01-13 04:58:00,42.2,41.4,30.08,SSE,158,0.0,3.0,97,0.00,,,0.00,WUHU216DAVISVP2,2013-01-13 09:58:00,
2013-01-13 05:03:00,42.2,41.7,30.09,SSE,158,0.0,3.0,98,0.00,,,0.00,WUHU216DAVISVP2,2013-01-13 10:03:00,
2013-01-13 05:08:00,42.2,41.7,30.09,SSE,158,0.0,3.0,98,0.00,,,0.00,WUHU216DAVISVP2,2013-01-13 10:08:00,
2013-01-13 05:13:00,42.2,41.7,30.09,SSE,158,0.0,2.0,98,0.00,,,0.00,WUHU216DAVISVP2,2013-01-13 10:13:00,
2013-01-13 05:18:00,42.2,41.7,30.09,SSE,158,0.0,1.0,98,0.00,,,0.00,WUHU216DAVISVP2,2013-01-13 10:18:00,
2013-01-13 05:23:00,42.3,41.8,30.09,SSE,158,0.0,1.0,98,0.00,,,0.00,WUHU216DAVISVP2,2013-01-13 10:23:00,
2013-01-13 05:28:00,42.3,41.8,30.09,SSE,159,1.0,1.0,98,0.00,,,0.00,WUHU216DAVISVP2,2013-01-13 10:28:00,
2013-01-13 05:33:00,42.3,41.8,30.09,SE,132,0.0,2.0,98,0.00,,,0.00,WUHU216DAVISVP2,2013-01-13 10:33:00,
2013-01-13 05:38:00,42.3,41.8,30.09,SE,132,0.0,2.0,98,0.00,,,0.00,WUHU216DAVISVP2,2013-01-13 10:38:00,
2013-01-13 05:43:00,42.3,41.8,30.09,SE,129,1.0,2.0,98,0.00,,,0.00,WUHU216DAVISVP2,2013-01-13 10:43:00,
2013-01-13 05:48:00,42.4,41.9,30.09,SE,129,0.0,2.0,98,0.00,,,0.00,WUHU216DAVISVP2,2013-01-13 10:48:00,
2013-01-13 05:53:00,42.4,41.9,30.09,SE,129,0.0,2.0,98,0.00,,,0.00,WUHU216DAVISVP2,2013-01-13 10:53:00,
2013-01-13 05:58:00,42.4,41.9,30.10,SE,129,0.0,2.0,98,0.00,,,0.00,WUHU216DAVISVP2,2013-01-13 10:58:00,
2013-01-13 06:03:00,42.4,41.9,30.10,SE,129,0.0,2.0,98,0.00,,,0.00,WUHU216DAVISVP2,2013-01-13 11:03:00,
2013-01-13 06:08:00,42.4,41.9,30.10,SE,132,0.0,2.0,98,0.00,,,0.00,WUHU216DAVISVP2,2013-01-13 11:08:00,
2013-01-13 06:13:00,42.4,41.9,30.09,SE,132,0.0,2.0,98,0.00,,,0.00,WUHU216DAVISVP2,2013-01-13 11:13:00,
2013-01-13 06:18:00,42.4,41.9,30.10,SE,132,0.0,2.0,98,0.00,,,0.00,WUHU216DAVISVP2,2013-01-13 11:18:00,
2013-01-13 06:23:00,42.4,41.9,30.10,SE,132,1.0,2.0,98,0.00,,,0.00,WUHU216DAVISVP2,2013-01-13 11:23:00,
2013-01-13 06:28:00,42.4,41.9,30.10,SE,132,1.0,2.0,98,0.00,,,0.00,WUHU216DAVISVP2,2013-01-13 11:28:00,
2013-01-13 06:33:00,42.4,41.9,30.09,ESE,117,0.0,2.0,98,0.00,,,0.00,WUHU216DAVISVP2,2013-01-13 11:33:00,
2013-01-13 06:38:00,42.4,41.9,30.09,ESE,117,0.0,2.0,98,0.00,,,0.00,WUHU216DAVISVP2,2013-01-13 11:38:00,
2013-01-13 06:43:00,42.5,42.0,30.09,ESE,115,1.0,3.0,98,0.00,,,0.00,WUHU216DAVISVP2,2013-01-13 11:43:00,
2013-01-13 06:48:00,42.5,42.0,30.10,ESE,115,0.0,3.0,98,0.00,,,0.00,WUHU216DAVISVP2,2013-01-13 11:48:00,
2013-01-13 06:53:00,42.5,42.0,30.10,ESE,115,0.0,3.0,98,0.00,,,0.00,WUHU216DAVISVP2,2013-01-13 11:53:00,
2013-01-13 06:58:00,42.5,42.0,30.10,ESE,115,0.0,3.0,98,0.00,,,0.00,WUHU216DAVISVP2,2013-01-13 11:58:00,
2013-01-13 07:03:00,42.5,42.0,30.10,ESE,117,0.0,3.0,98,0.00,,,0.00,WUHU216DAVISVP2,2013-01-13 12:03:00,
2013-01-13 07:08:00,42.5,42.0,30.10,ESE,117,0.0,2.0,98,0.00,,,0.00,WUHU216DAVISVP2,2013-01-13 12:08:00,
2013-01-13 07:13:00,42.5,42.0,30.10,ESE,117,0.0,1.0,98,0.00,,,0.00,WUHU216DAVISVP2,2013-01-13 12:13:00,
2013-01-13 07:18:00,42.6,42.1,30.10,ESE,117,0.0,1.0,98,0.00,,,0.00,WUHU216DAVISVP2,2013-01-13 12:18:00,
2013-01-13 07:23:00,42.6,42.1,30.10,ESE,117,0.0,1.0,98,0.00,,,0.00,WUHU216DAVISVP2,2013-01-13 12:23:00,
2013-01-13 07:28:00,42.6,42.1,30.10,ESE,117,0.0,1.0,98,0.00,,,0.00,WUHU216DAVISVP2,2013-01-13 12:28:00,
2013-01-13 07:33:00,42.7,42.2,30.10,ESE,117,0.0,1.0,98,0.00,,,0.00,WUHU216DAVISVP2,2013-01-13 12:33:00,
2013-01-13 07:38:00,42.7,42.2,30.10,ESE,117,0.0,1.0,98,0.00,,,0.00,WUHU216DAVISVP2,2013-01-13 12:38:00,
2013-01-13 07:43:00,42.7,42.2,30.11,ESE,117,0.0,1.0,98,0.00,,,0.00,WUHU216DAVISVP2,2013-01-13 12:43:00,
2013-01-13 07:48:00,42.8,42.3,30.11,ESE,117,0.0,1.0,98,0.00,,,0.00,WUHU216DAVISVP2,2013-01-13 12:48:00,
2013-01-13 07:53:00,42.8,42.3,30.11,ESE,117,1.0,1.0,98,0.00,,,0.00,WUHU216DAVISVP2,2013-01-13 12:53:00,
2013-01-13 07:58:00,42.8,42.3,30.10,ESE,112,2.0,2.0,98,0.00,,,0.00,WUHU216DAVISVP2,2013-01-13 12:58:00,
2013-01-13 08:03:00,42.9,42.4,30.11,ESE,111,0.0,3.0,98,0.00,,,0.00,WUHU216DAVISVP2,2013-01-13 13:03:00,
2013-01-13 08:08:00,42.9,42.4,30.11,ESE,111,0.0,3.0,98,0.00,,,0.00,WUHU216DAVISVP2,2013-01-13 13:08:00,
2013-01-13 08:13:00,42.9,42.4,30.11,ESE,111,0.0,3.0,98,0.00,,,0.00,WUHU216DAVISVP2,2013-01-13 13:13:00,
2013-01-13 08:18:00,43.0,42.5,30.11,ESE,111,0.0,2.0,98,0.00,,,0.00,WUHU216DAVISVP2,2013-01-13 13:18:00,
2013-01-13 08:24:00,43.0,42.5,30.11,ESE,111,0.0,1.0,98,0.00,,,0.00,WUHU216DAVISVP2,2013-01-13 13:24:00,
2013-01-13 08:28:00,43.1,42.6,30.12,ESE,111,0.0,1.0,98,0.00,,,0.00,WUHU216DAVISVP2,2013-01-13 13:28:00,
2013-01-13 08:34:00,43.1,42.6,30.12,ESE,111,0.0,1.0,98,0.00,,,0.00,WUHU216DAVISVP2,2013-01-13 13:34:00,
2013-01-13 08:38:00,43.1,42.6,30.12,ESE,111,0.0,1.0,98,0.00,,,0.00,WUHU216DAVISVP2,2013-01-13 13:38:00,
2013-01-13 08:43:00,43.1,42.6,30.12,ESE,111,0.0,2.0,98,0.00,,,0.00,WUHU216DAVISVP2,2013-01-13 13:43:00,
2013-01-13 08:48:00,43.1,42.6,30.12,ESE,111,0.0,2.0,98,0.00,,,0.00,WUHU216DAVISVP2,2013-01-13 13:48:00,
2013-01-13 08:53:00,43.2,42.7,30.12,ESE,111,1.0,2.0,98,0.00,,,0.00,WUHU216DAVISVP2,2013-01-13 13:53:00,
2013-01-13 08:58:00,43.3,42.8,30.12,ESE,111,0.0,2.0,98,0.00,,,0.00,WUHU216DAVISVP2,2013-01-13 13:58:00,
2013-01-13 09:03:00,43.3,42.8,30.12,ESE,111,0.0,2.0,98,0.00,,,0.00,WUHU216DAVISVP2,2013-01-13 14:03:00,
2013-01-13 09:08:00,43.5,42.9,30.12,ESE,111,0.0,2.0,98,0.00,,,0.00,WUHU216DAVISVP2,2013-01-13 14:08:00,
2013-01-13 09:13:00,43.5,42.9,30.12,ESE,111,0.0,2.0,98,0.00,,,0.00,WUHU216DAVISVP2,2013-01-13 14:13:00,
2013-01-13 09:18:00,43.6,43.0,30.11,ESE,113,1.0,2.0,98,0.00,,,0.00,WUHU216DAVISVP2,2013-01-13 14:18:00,
2013-01-13 09:23:00,43.7,43.1,30.11,ESE,103,0.0,3.0,98,0.00,,,0.00,WUHU216DAVISVP2,2013-01-13 14:23:00,
2013-01-13 09:28:00,43.8,43.2,30.11,SSE,159,0.0,3.0,98,0.00,,,0.00,WUHU216DAVISVP2,2013-01-13 14:28:00,
2013-01-13 09:34:00,44.0,43.4,30.11,SSW,205,0.0,3.0,98,0.00,,,0.00,WUHU216DAVISVP2,2013-01-13 14:34:00,
2013-01-13 09:39:00,44.1,43.5,30.11,SW,236,1.0,3.0,98,0.00,,,0.00,WUHU216DAVISVP2,2013-01-13 14:39:00,
2013-01-13 09:44:00,44.3,43.7,30.11,East,80,1.0,3.0,98,0.00,,,0.00,WUHU216DAVISVP2,2013-01-13 14:44:00,
2013-01-13 09:49:00,44.5,43.9,30.11,South,186,2.0,2.0,98,0.00,,,0.00,WUHU216DAVISVP2,2013-01-13 14:49:00,
2013-01-13 09:54:00,44.6,44.0,30.11,SE,126,1.0,3.0,98,0.00,,,0.00,WUHU216DAVISVP2,2013-01-13 14:54:00,
2013-01-13 09:58:00,44.7,44.1,30.11,SE,136,1.0,3.0,98,0.00,,,0.00,WUHU216DAVISVP2,2013-01-13 14:58:00,
2013-01-13 10:03:00,44.9,44.3,30.11,SE,136,0.0,3.0,98,0.00,,,0.00,WUHU216DAVISVP2,2013-01-13 15:03:00,
2013-01-13 10:09:00,45.1,44.5,30.12,SE,136,0.0,3.0,98,0.00,,,0.00,WUHU216DAVISVP2,2013-01-13 15:09:00,
2013-01-13 10:14:00,45.2,44.6,30.13,SE,136,0.0,2.0,98,0.00,,,0.00,WUHU216DAVISVP2,2013-01-13 15:14:00,
2013-01-13 10:19:00,45.3,44.7,30.14,SE,136,0.0,1.0,98,0.00,,,0.00,WUHU216DAVISVP2,2013-01-13 15:19:00,
2013-01-13 10:24:00,45.5,44.9,30.14,SE,136,0.0,1.0,98,0.00,,,0.00,WUHU216DAVISVP2,2013-01-13 15:24:00,
2013-01-13 10:29:00,45.6,45.0,30.15,SE,136,0.0,1.0,98,0.00,,,0.00,WUHU216DAVISVP2,2013-01-13 15:29:00,
2013-01-13 10:34:00,45.8,45.2,30.15,SE,136,0.0,1.0,98,0.00,,,0.00,WUHU216DAVISVP2,2013-01-13 15:34:00,
2013-01-13 10:39:00,45.8,45.2,30.14,SE,136,0.0,1.0,98,0.00,,,0.00,WUHU216DAVISVP2,2013-01-13 15:39:00,
2013-01-13 10:44:00,46.0,45.7,30.15,ESE,112,2.0,2.0,99,0.00,,,0.00,WUHU216DAVISVP2,2013-01-13 15:44:00,
2013-01-13 10:49:00,46.2,45.9,30.15,ESE,112,0.0,2.0,99,0.00,,,0.00,WUHU216DAVISVP2,2013-01-13 15:49:00,
2013-01-13 10:53:00,46.3,45.7,30.14,ESE,112,0.0,2.0,98,0.00,,,0.00,WUHU216DAVISVP2,2013-01-13 15:53:00,
2013-01-13 10:59:00,46.4,45.8,30.13,ESE,112,0.0,2.0,98,0.00,,,0.00,WUHU216DAVISVP2,2013-01-13 15:59:00,
2013-01-13 11:03:00,46.3,45.7,30.12,ESE,109,1.0,2.0,98,0.00,,,0.00,WUHU216DAVISVP2,2013-01-13 16:03:00,
2013-01-13 11:08:00,46.3,45.7,30.12,ESE,108,0.0,2.0,98,0.00,,,0.00,WUHU216DAVISVP2,2013-01-13 16:08:00,
2013-01-13 11:13:00,46.4,45.8,30.11,ESE,118,0.0,3.0,98,0.00,,,0.00,WUHU216DAVISVP2,2013-01-13 16:13:00,
2013-01-13 11:18:00,46.5,45.9,30.11,ESE,112,0.0,4.0,98,0.00,,,0.00,WUHU216DAVISVP2,2013-01-13 16:18:00,
2013-01-13 11:23:00,46.5,45.9,30.11,ESE,112,3.0,4.0,98,0.00,,,0.00,WUHU216DAVISVP2,2013-01-13 16:23:00,
2013-01-13 11:28:00,46.4,45.8,30.11,East,90,1.0,5.0,98,0.00,,,0.00,WUHU216DAVISVP2,2013-01-13 16:28:00,
2013-01-13 11:33:00,46.3,45.7,30.10,East,96,2.0,5.0,98,0.00,,,0.00,WUHU216DAVISVP2,2013-01-13 16:33:00,
2013-01-13 11:38:00,46.2,45.6,30.09,ESE,105,1.0,5.0,98,0.00,,,0.00,WUHU216DAVISVP2,2013-01-13 16:38:00,
2013-01-13 11:43:00,46.1,45.5,30.09,SSE,147,1.0,7.0,98,0.00,,,0.00,WUHU216DAVISVP2,2013-01-13 16:43:00,
2013-01-13 11:48:00,46.0,45.4,30.09,ESE,119,2.0,7.0,98,0.00,,,0.00,WUHU216DAVISVP2,2013-01-13 16:48:00,
2013-01-13 11:53:00,45.6,45.0,30.08,SE,137,2.0,7.0,98,0.00,,,0.00,WUHU216DAVISVP2,2013-01-13 16:53:00,
2013-01-13 11:58:00,45.6,45.0,30.08,ESE,119,1.0,6.0,98,0.00,,,0.00,WUHU216DAVISVP2,2013-01-13 16:58:00,
2013-01-13 12:03:00,45.6,45.0,30.08,SE,135,1.0,7.0,98,0.00,,,0.00,WUHU216DAVISVP2,2013-01-13 17:03:00,
2013-01-13 12:08:00,45.6,45.0,30.08,ESE,113,2.0,7.0,98,0.00,,,0.00,WUHU216DAVISVP2,2013-01-13 17:08:00,
2013-01-13 12:13:00,45.7,45.1,30.08,South,169,1.0,7.0,98,0.00,,,0.00,WUHU216DAVISVP2,2013-01-13 17:13:00,
2013-01-13 12:18:00,45.8,45.2,30.08,ESE,109,1.0,7.0,98,0.00,,,0.00,WUHU216DAVISVP2,2013-01-13 17:18:00,
2013-01-13 12:23:00,45.7,45.1,30.07,ESE,117,4.0,8.0,98,0.00,,,0.00,WUHU216DAVISVP2,2013-01-13 17:23:00,
2013-01-13 12:28:00,45.6,45.0,30.07,SSE,151,1.0,8.0,98,0.00,,,0.00,WUHU216DAVISVP2,2013-01-13 17:28:00,
2013-01-13 12:33:00,45.5,44.9,30.07,ESE,110,1.0,8.0,98,0.00,,,0.00,WUHU216DAVISVP2,2013-01-13 17:33:00,
2013-01-13 12:38:00,45.5,44.9,30.06,ESE,123,1.0,8.0,98,0.00,,,0.00,WUHU216DAVISVP2,2013-01-13 17:38:00,
2013-01-13 12:43:00,45.6,45.0,30.06,ESE,118,1.0,8.0,98,0.00,,,0.00,WUHU216DAVISVP2,2013-01-13 17:43:00,
2013-01-13 12:48:00,45.8,45.2,30.06,SSW,209,0.0,8.0,98,0.00,,,0.00,WUHU216DAVISVP2,2013-01-13 17:48:00,
2013-01-13 12:53:00,46.0,45.4,30.06,SSW,206,0.0,7.0,98,0.00,,,0.00,WUHU216DAVISVP2,2013-01-13 17:53:00,
2013-01-13 12:58:00,46.1,45.5,30.06,ESE,123,0.0,7.0,98,0.00,,,0.00,WUHU216DAVISVP2,2013-01-13 17:58:00,
2013-01-13 13:03:00,46.1,45.5,30.06,SE,126,1.0,3.0,98,0.00,,,0.00,WUHU216DAVISVP2,2013-01-13 18:03:00,
2013-01-13 13:08:00,46.1,45.5,30.06,SE,130,1.0,5.0,98,0.00,,,0.00,WUHU216DAVISVP2,2013-01-13 18:08:00,
2013-01-13 13:13:00,46.1,45.5,30.06,SE,130,0.0,5.0,98,0.00,,,0.00,WUHU216DAVISVP2,2013-01-13 18:13:00,
2013-01-13 13:18:00,46.2,45.6,30.06,SE,129,1.0,5.0,98,0.00,,,0.00,WUHU216DAVISVP2,2013-01-13 18:18:00,
2013-01-13 13:24:00,46.4,45.8,30.05,ESE,114,2.0,5.0,98,0.00,,,0.00,WUHU216DAVISVP2,2013-01-13 18:24:00,
2013-01-13 13:29:00,46.4,45.8,30.05,SE,135,0.0,4.0,98,0.00,,,0.00,WUHU216DAVISVP2,2013-01-13 18:29:00,
2013-01-13 13:34:00,46.5,45.9,30.05,SE,128,0.0,4.0,98,0.00,,,0.00,WUHU216DAVISVP2,2013-01-13 18:34:00,
2013-01-13 13:39:00,46.6,46.0,30.05,SE,128,1.0,4.0,98,0.00,,,0.00,WUHU216DAVISVP2,2013-01-13 18:39:00,
2013-01-13 13:44:00,46.6,46.0,30.05,SE,128,1.0,3.0,98,0.00,,,0.00,WUHU216DAVISVP2,2013-01-13 18:44:00,
2013-01-13 13:48:00,46.7,46.1,30.05,SE,128,0.0,2.0,98,0.00,,,0.00,WUHU216DAVISVP2,2013-01-13 18:48:00,
2013-01-13 13:53:00,46.7,46.1,30.05,SE,130,1.0,3.0,98,0.00,,,0.00,WUHU216DAVISVP2,2013-01-13 18:53:00,
2013-01-13 13:58:00,46.8,46.2,30.05,SE,126,0.0,3.0,98,0.00,,,0.00,WUHU216DAVISVP2,2013-01-13 18:58:00,
2013-01-13 14:03:00,46.8,46.2,30.05,SE,126,0.0,3.0,98,0.00,,,0.00,WUHU216DAVISVP2,2013-01-13 19:03:00,
2013-01-13 14:08:00,46.8,46.2,30.05,East,91,2.0,5.0,98,0.00,,,0.00,WUHU216DAVISVP2,2013-01-13 19:08:00,
2013-01-13 14:13:00,46.8,46.2,30.05,East,91,0.0,5.0,98,0.00,,,0.00,WUHU216DAVISVP2,2013-01-13 19:13:00,
2013-01-13 14:19:00,46.8,46.2,30.05,East,92,2.0,5.0,98,0.00,,,0.00,WUHU216DAVISVP2,2013-01-13 19:19:00,
2013-01-13 14:24:00,46.7,46.1,30.05,ESE,107,1.0,5.0,98,0.00,,,0.00,WUHU216DAVISVP2,2013-01-13 19:24:00,
2013-01-13 14:29:00,46.7,46.1,30.05,ESE,114,0.0,4.0,98,0.00,,,0.00,WUHU216DAVISVP2,2013-01-13 19:29:00,
2013-01-13 14:33:00,46.7,46.1,30.05,ESE,120,0.0,4.0,98,0.00,,,0.00,WUHU216DAVISVP2,2013-01-13 19:33:00,
2013-01-13 14:39:00,46.7,46.1,30.05,ESE,120,0.0,4.0,98,0.00,,,0.00,WUHU216DAVISVP2,2013-01-13 19:39:00,
2013-01-13 14:44:00,46.8,46.2,30.05,ESE,120,3.0,4.0,98,0.00,,,0.00,WUHU216DAVISVP2,2013-01-13 19:44:00,
2013-01-13 14:49:00,46.8,46.2,30.05,East,98,0.0,3.0,98,0.00,,,0.00,WUHU216DAVISVP2,2013-01-13 19:49:00,
2013-01-13 14:54:00,46.9,46.3,30.05,ESE,109,0.0,3.0,98,0.00,,,0.00,WUHU216DAVISVP2,2013-01-13 19:54:00,
2013-01-13 14:59:00,46.9,46.3,30.05,SE,142,1.0,3.0,98,0.00,,,0.00,WUHU216DAVISVP2,2013-01-13 19:59:00,
2013-01-13 15:04:00,47.0,46.4,30.05,ESE,117,0.0,3.0,98,0.00,,,0.00,WUHU216DAVISVP2,2013-01-13 20:04:00,
2013-01-13 15:09:00,47.0,46.4,30.05,ESE,117,0.0,3.0,98,0.00,,,0.00,WUHU216DAVISVP2,2013-01-13 20:09:00,
2013-01-13 15:14:00,47.0,46.4,30.05,ESE,107,2.0,3.0,98,0.00,,,0.00,WUHU216DAVISVP2,2013-01-13 20:14:00,
2013-01-13 15:19:00,47.0,46.4,30.05,ESE,107,0.0,3.0,98,0.00,,,0.00,WUHU216DAVISVP2,2013-01-13 20:19:00,
2013-01-13 15:24:00,47.1,46.5,30.05,ESE,107,1.0,3.0,98,0.00,,,0.00,WUHU216DAVISVP2,2013-01-13 20:24:00,
2013-01-13 15:29:00,47.2,46.6,30.05,ESE,115,0.0,3.0,98,0.00,,,0.00,WUHU216DAVISVP2,2013-01-13 20:29:00,
2013-01-13 15:34:00,47.2,46.6,30.05,ESE,121,1.0,4.0,98,0.00,,,0.00,WUHU216DAVISVP2,2013-01-13 20:34:00,
2013-01-13 15:38:00,47.3,46.7,30.05,South,174,2.0,4.0,98,0.00,,,0.00,WUHU216DAVISVP2,2013-01-13 20:38:00,
2013-01-13 15:44:00,47.4,46.8,30.05,SSE,148,0.0,4.0,98,0.00,,,0.00,WUHU216DAVISVP2,2013-01-13 20:44:00,
2013-01-13 15:49:00,47.4,46.8,30.05,ESE,110,1.0,4.0,98,0.00,,,0.00,WUHU216DAVISVP2,2013-01-13 20:49:00,
2013-01-13 15:54:00,47.5,46.9,30.04,ESE,118,0.0,4.0,98,0.00,,,0.00,WUHU216DAVISVP2,2013-01-13 20:54:00,
2013-01-13 15:59:00,47.6,47.0,30.04,East,94,0.0,4.0,98,0.00,,,0.00,WUHU216DAVISVP2,2013-01-13 20:59:00,
2013-01-13 16:04:00,47.6,47.0,30.05,East,94,0.0,3.0,98,0.00,,,0.00,WUHU216DAVISVP2,2013-01-13 21:04:00,
2013-01-13 16:09:00,47.7,47.1,30.05,SE,138,0.0,3.0,98,0.00,,,0.00,WUHU216DAVISVP2,2013-01-13 21:09:00,
2013-01-13 16:14:00,47.7,47.1,30.04,SSE,164,1.0,3.0,98,0.00,,,0.00,WUHU216DAVISVP2,2013-01-13 21:14:00,
2013-01-13 16:19:00,47.7,47.4,30.04,SSE,161,1.0,4.0,99,0.00,,,0.00,WUHU216DAVISVP2,2013-01-13 21:19:00,
2013-01-13 16:24:00,47.8,47.5,30.04,SSE,152,0.0,4.0,99,0.00,,,0.00,WUHU216DAVISVP2,2013-01-13 21:24:00,
2013-01-13 16:29:00,47.8,47.5,30.04,East,95,1.0,4.0,99,0.00,,,0.00,WUHU216DAVISVP2,2013-01-13 21:29:00,
2013-01-13 16:34:00,47.8,47.5,30.03,East,89,1.0,4.0,99,0.00,,,0.00,WUHU216DAVISVP2,2013-01-13 21:34:00,
2013-01-13 16:39:00,47.8,47.5,30.04,NE,47,0.0,3.0,99,0.00,,,0.00,WUHU216DAVISVP2,2013-01-13 21:39:00,
2013-01-13 16:44:00,47.8,47.2,30.03,East,95,0.0,3.0,98,0.00,,,0.00,WUHU216DAVISVP2,2013-01-13 21:44:00,
2013-01-13 16:49:00,47.8,47.2,30.04,SSE,151,0.0,3.0,98,0.00,,,0.00,WUHU216DAVISVP2,2013-01-13 21:49:00,
2013-01-13 16:54:00,47.9,47.3,30.04,SE,130,0.0,3.0,98,0.00,,,0.00,WUHU216DAVISVP2,2013-01-13 21:54:00,
2013-01-13 16:59:00,47.9,47.3,30.04,SE,124,1.0,3.0,98,0.00,,,0.00,WUHU216DAVISVP2,2013-01-13 21:59:00,
2013-01-13 17:04:00,47.9,47.3,30.04,SE,124,0.0,3.0,98,0.00,,,0.00,WUHU216DAVISVP2,2013-01-13 22:04:00,
2013-01-13 17:09:00,47.9,47.3,30.04,SE,124,0.0,2.0,98,0.00,,,0.00,WUHU216DAVISVP2,2013-01-13 22:09:00,
2013-01-13 17:14:00,47.9,47.3,30.04,ESE,119,0.0,2.0,98,0.00,,,0.00,WUHU216DAVISVP2,2013-01-13 22:14:00,
2013-01-13 17:19:00,47.9,47.6,30.05,ESE,119,0.0,2.0,99,0.00,,,0.00,WUHU216DAVISVP2,2013-01-13 22:19:00,
2013-01-13 17:24:00,48.0,47.7,30.05,ESE,119,0.0,2.0,99,0.00,,,0.00,WUHU216DAVISVP2,2013-01-13 22:24:00,
2013-01-13 17:29:00,48.0,47.4,30.05,ESE,119,0.0,2.0,98,0.00,,,0.00,WUHU216DAVISVP2,2013-01-13 22:29:00,
2013-01-13 17:34:00,48.0,47.4,30.05,ESE,119,0.0,1.0,98,0.00,,,0.00,WUHU216DAVISVP2,2013-01-13 22:34:00,
2013-01-13 17:39:00,48.0,47.4,30.05,ESE,119,0.0,1.0,98,0.00,,,0.00,WUHU216DAVISVP2,2013-01-13 22:39:00,
2013-01-13 17:44:00,48.0,47.4,30.05,ESE,119,0.0,1.0,98,0.00,,,0.00,WUHU216DAVISVP2,2013-01-13 22:44:00,
2013-01-13 17:49:00,48.0,47.4,30.05,ESE,119,0.0,1.0,98,0.00,,,0.00,WUHU216DAVISVP2,2013-01-13 22:49:00,
2013-01-13 17:54:00,48.0,47.4,30.05,SE,138,0.0,1.0,98,0.00,,,0.00,WUHU216DAVISVP2,2013-01-13 22:54:00,
2013-01-13 17:59:00,48.1,47.5,30.05,SE,138,0.0,1.0,98,0.00,,,0.00,WUHU216DAVISVP2,2013-01-13 22:59:00,
2013-01-13 18:04:00,48.2,47.6,30.04,SE,138,0.0,1.0,98,0.00,,,0.00,WUHU216DAVISVP2,2013-01-13 23:04:00,
2013-01-13 18:09:00,48.2,47.6,30.04,SE,138,0.0,1.0,98,0.00,,,0.00,WUHU216DAVISVP2,2013-01-13 23:09:00,
2013-01-13 18:14:00,48.2,47.6,30.04,SE,138,0.0,1.0,98,0.00,,,0.00,WUHU216DAVISVP2,2013-01-13 23:14:00,
2013-01-13 18:19:00,48.2,47.6,30.04,SE,138,0.0,1.0,98,0.00,,,0.00,WUHU216DAVISVP2,2013-01-13 23:19:00,
2013-01-13 18:24:00,48.2,47.6,30.04,SE,138,0.0,1.0,98,0.00,,,0.00,WUHU216DAVISVP2,2013-01-13 23:24:00,
2013-01-13 18:29:00,48.2,47.6,30.05,SE,138,0.0,1.0,98,0.00,,,0.00,WUHU216DAVISVP2,2013-01-13 23:29:00,
2013-01-13 18:34:00,48.2,47.6,30.04,SE,138,0.0,1.0,98,0.00,,,0.00,WUHU216DAVISVP2,2013-01-13 23:34:00,
2013-01-13 18:39:00,48.2,47.6,30.04,SE,138,0.0,1.0,98,0.00,,,0.00,WUHU216DAVISVP2,2013-01-13 23:39:00,
2013-01-13 18:44:00,48.2,47.6,30.04,SE,138,0.0,1.0,98,0.00,,,0.00,WUHU216DAVISVP2,2013-01-13 23:44:00,
2013-01-13 18:49:00,48.2,47.6,30.04,SE,138,0.0,1.0,98,0.00,,,0.00,WUHU216DAVISVP2,2013-01-13 23:49:00,
2013-01-13 18:54:00,48.2,47.6,30.04,SE,138,0.0,1.0,98,0.00,,,0.00,WUHU216DAVISVP2,2013-01-13 23:54:00,
2013-01-13 18:59:00,48.2,47.6,30.03,SE,138,0.0,1.0,98,0.00,,,0.00,WUHU216DAVISVP2,2013-01-13 23:59:00,
2013-01-13 19:04:00,48.2,47.6,30.03,SE,138,0.0,1.0,98,0.00,,,0.00,WUHU216DAVISVP2,2013-01-14 00:04:00,
2013-01-13 19:09:00,48.2,47.6,30.03,SE,138,0.0,1.0,98,0.00,,,0.00,WUHU216DAVISVP2,2013-01-14 00:09:00,
2013-01-13 19:14:00,48.2,47.6,30.03,SE,138,0.0,1.0,98,0.00,,,0.00,WUHU216DAVISVP2,2013-01-14 00:14:00,
2013-01-13 19:19:00,48.2,47.6,30.02,SE,138,0.0,1.0,98,0.00,,,0.00,WUHU216DAVISVP2,2013-01-14 00:19:00,
2013-01-13 19:24:00,48.2,47.6,30.03,SE,138,0.0,1.0,98,0.00,,,0.00,WUHU216DAVISVP2,2013-01-14 00:24:00,
2013-01-13 19:29:00,48.2,47.6,30.02,SE,138,0.0,1.0,98,0.00,,,0.00,WUHU216DAVISVP2,2013-01-14 00:29:00,
2013-01-13 19:34:00,48.2,47.6,30.02,SE,138,0.0,1.0,98,0.00,,,0.00,WUHU216DAVISVP2,2013-01-14 00:34:00,
2013-01-13 19:39:00,48.3,47.7,30.02,SE,138,0.0,1.0,98,0.00,,,0.00,WUHU216DAVISVP2,2013-01-14 00:39:00,
2013-01-13 19:44:00,48.3,47.7,30.02,South,170,0.0,1.0,98,0.00,,,0.00,WUHU216DAVISVP2,2013-01-14 00:44:00,
2013-01-13 19:49:00,48.3,48.0,30.01,SSW,194,0.0,2.0,99,0.00,,,0.00,WUHU216DAVISVP2,2013-01-14 00:49:00,
2013-01-13 19:54:00,48.4,48.1,30.01,SSW,192,0.0,2.0,99,0.00,,,0.00,WUHU216DAVISVP2,2013-01-14 00:54:00,
2013-01-13 19:59:00,48.4,48.1,30.01,SSW,192,0.0,2.0,99,0.00,,,0.00,WUHU216DAVISVP2,2013-01-14 00:59:00,
2013-01-13 20:04:00,48.4,48.1,30.01,SSW,194,0.0,2.0,99,0.00,,,0.00,WUHU216DAVISVP2,2013-01-14 01:04:00,
2013-01-13 20:09:00,48.5,48.2,30.01,SSW,194,0.0,2.0,99,0.00,,,0.00,WUHU216DAVISVP2,2013-01-14 01:09:00,
2013-01-13 20:14:00,48.5,48.2,30.01,SSW,194,0.0,2.0,99,0.01,,,0.01,WUHU216DAVISVP2,2013-01-14 01:14:00,
2013-01-13 20:19:00,48.6,48.3,30.01,SSW,194,0.0,2.0,99,0.01,,,0.01,WUHU216DAVISVP2,2013-01-14 01:19:00,
2013-01-13 20:24:00,48.6,48.3,30.01,SSW,194,0.0,1.0,99,0.01,,,0.01,WUHU216DAVISVP2,2013-01-14 01:24:00,
2013-01-13 20:29:00,48.6,48.3,30.00,SSW,194,1.0,1.0,99,0.01,,,0.01,WUHU216DAVISVP2,2013-01-14 01:29:00,
2013-01-13 20:34:00,48.7,48.4,30.00,SSW,194,0.0,1.0,99,0.01,,,0.01,WUHU216DAVISVP2,2013-01-14 01:34:00,
2013-01-13 20:39:00,48.8,48.5,30.00,SSW,194,0.0,1.0,99,0.01,,,0.01,WUHU216DAVISVP2,2013-01-14 01:39:00,
2013-01-13 20:44:00,48.8,48.5,30.00,SSW,194,0.0,1.0,99,0.01,,,0.01,WUHU216DAVISVP2,2013-01-14 01:44:00,
2013-01-13 20:49:00,48.8,48.5,30.00,SSW,194,0.0,1.0,99,0.01,,,0.01,WUHU216DAVISVP2,2013-01-14 01:49:00,
2013-01-13 20:54:00,48.9,48.6,30.00,SSW,194,0.0,1.0,99,0.01,,,0.01,WUHU216DAVISVP2,2013-01-14 01:54:00,
2013-01-13 20:59:00,49.0,48.7,30.00,SSW,194,0.0,1.0,99,0.01,,,0.01,WUHU216DAVISVP2,2013-01-14 01:59:00,
2013-01-13 21:04:00,49.0,48.7,30.00,SSW,194,1.0,1.0,99,0.01,,,0.01,WUHU216DAVISVP2,2013-01-14 02:04:00,
2013-01-13 21:09:00,49.0,48.7,30.00,SSW,194,0.0,1.0,99,0.01,,,0.01,WUHU216DAVISVP2,2013-01-14 02:09:00,
2013-01-13 21:14:00,49.0,48.7,30.00,SSW,194,0.0,1.0,99,0.00,,,0.01,WUHU216DAVISVP2,2013-01-14 02:14:00,
2013-01-13 21:19:00,49.0,48.7,30.00,SSW,194,0.0,1.0,99,0.00,,,0.01,WUHU216DAVISVP2,2013-01-14 02:19:00,
2013-01-13 21:24:00,49.1,48.8,29.99,SSW,194,0.0,0.0,99,0.00,,,0.01,WUHU216DAVISVP2,2013-01-14 02:24:00,
2013-01-13 21:29:00,49.1,48.8,30.00,SSW,194,0.0,0.0,99,0.00,,,0.01,WUHU216DAVISVP2,2013-01-14 02:29:00,
2013-01-13 21:34:00,49.2,48.9,29.99,SSW,194,0.0,1.0,99,0.00,,,0.01,WUHU216DAVISVP2,2013-01-14 02:34:00,
2013-01-13 21:39:00,49.2,48.9,29.99,SSW,194,0.0,1.0,99,0.00,,,0.01,WUHU216DAVISVP2,2013-01-14 02:39:00,
2013-01-13 21:44:00,49.2,48.9,30.00,SSW,194,0.0,1.0,99,0.00,,,0.01,WUHU216DAVISVP2,2013-01-14 02:44:00,
2013-01-13 21:49:00,49.2,48.9,29.99,SSW,194,0.0,1.0,99,0.00,,,0.01,WUHU216DAVISVP2,2013-01-14 02:49:00,
2013-01-13 21:54:00,49.2,48.9,29.99,SSW,194,0.0,1.0,99,0.00,,,0.01,WUHU216DAVISVP2,2013-01-14 02:54:00,
2013-01-13 21:59:00,49.3,49.0,29.99,SSW,194,0.0,2.0,99,0.00,,,0.01,WUHU216DAVISVP2,2013-01-14 02:59:00,
2013-01-13 22:04:00,49.3,49.0,29.99,SSW,194,0.0,2.0,99,0.00,,,0.01,WUHU216DAVISVP2,2013-01-14 03:04:00,
2013-01-13 22:09:00,49.4,49.1,29.99,SSW,194,0.0,2.0,99,0.00,,,0.01,WUHU216DAVISVP2,2013-01-14 03:09:00,
2013-01-13 22:14:00,49.4,49.1,29.99,SSW,194,0.0,2.0,99,0.00,,,0.01,WUHU216DAVISVP2,2013-01-14 03:14:00,
2013-01-13 22:19:00,49.4,49.1,29.99,SSW,194,0.0,1.0,99,0.00,,,0.01,WUHU216DAVISVP2,2013-01-14 03:19:00,
2013-01-13 22:24:00,49.4,49.1,29.99,SSW,194,0.0,1.0,99,0.00,,,0.01,WUHU216DAVISVP2,2013-01-14 03:24:00,
2013-01-13 22:29:00,49.5,49.2,29.99,SSW,194,0.0,1.0,99,0.00,,,0.01,WUHU216DAVISVP2,2013-01-14 03:29:00,
2013-01-13 22:34:00,49.5,49.2,29.99,SSW,194,0.0,1.0,99,0.00,,,0.01,WUHU216DAVISVP2,2013-01-14 03:34:00,
2013-01-13 22:39:00,49.5,49.2,30.00,SSW,194,0.0,0.0,99,0.00,,,0.01,WUHU216DAVISVP2,2013-01-14 03:39:00,
2013-01-13 22:44:00,49.5,49.2,29.99,SSW,194,0.0,0.0,99,0.00,,,0.01,WUHU216DAVISVP2,2013-01-14 03:44:00,
2013-01-13 22:49:00,49.4,49.1,29.99,SSW,194,0.0,0.0,99,0.00,,,0.01,WUHU216DAVISVP2,2013-01-14 03:49:00,
2013-01-13 22:54:00,49.4,49.1,29.99,SSW,194,0.0,0.0,99,0.00,,,0.01,WUHU216DAVISVP2,2013-01-14 03:54:00,
2013-01-13 22:59:00,49.4,49.1,29.99,SSW,194,0.0,0.0,99,0.00,,,0.01,WUHU216DAVISVP2,2013-01-14 03:59:00,
2013-01-13 23:04:00,49.3,49.0,29.99,SSW,194,0.0,0.0,99,0.00,,,0.01,WUHU216DAVISVP2,2013-01-14 04:04:00,
2013-01-13 23:09:00,49.4,49.1,29.99,SSW,194,0.0,1.0,99,0.00,,,0.01,WUHU216DAVISVP2,2013-01-14 04:09:00,
2013-01-13 23:14:00,49.4,49.1,29.99,SSW,194,0.0,1.0,99,0.00,,,0.01,WUHU216DAVISVP2,2013-01-14 04:14:00,
2013-01-13 23:19:00,49.5,49.2,29.98,SSW,194,0.0,2.0,99,0.00,,,0.01,WUHU216DAVISVP2,2013-01-14 04:19:00,
2013-01-13 23:24:00,49.6,49.3,29.98,SSW,194,0.0,2.0,99,0.00,,,0.01,WUHU216DAVISVP2,2013-01-14 04:24:00,
2013-01-13 23:29:00,49.5,49.2,29.98,SSW,194,0.0,2.0,99,0.00,,,0.01,WUHU216DAVISVP2,2013-01-14 04:29:00,
2013-01-13 23:34:00,49.6,49.3,29.98,SSW,194,0.0,1.0,99,0.00,,,0.01,WUHU216DAVISVP2,2013-01-14 04:34:00,
2013-01-13 23:39:00,49.6,49.3,29.98,SSW,194,0.0,1.0,99,0.00,,,0.01,WUHU216DAVISVP2,2013-01-14 04:39:00,
2013-01-13 23:44:00,49.7,49.4,29.98,SSW,194,0.0,2.0,99,0.00,,,0.01,WUHU216DAVISVP2,2013-01-14 04:44:00,
2013-01-13 23:49:00,49.7,49.4,29.98,SSW,194,0.0,2.0,99,0.00,,,0.01,WUHU216DAVISVP2,2013-01-14 04:49:00,
2013-01-13 23:54:00,49.7,49.4,29.98,SSW,194,0.0,2.0,99,0.00,,,0.01,WUHU216DAVISVP2,2013-01-14 04:54:00,
2013-01-13 23:59:00,49.6,49.3,29.98,SSW,194,0.0,2.0,99,0.00,,,0.01,WUHU216DAVISVP2,2013-01-14 04:59:00,